Location: Unspecified
(0.0000°N, 0.0000°E)
Time: 05:57:15
(UTC+00:00)

Tiros 1 - All Passes

Search period start: 30 September 2014 00:00
Search period end: 10 October 2014 00:00
Orbit: 633 x 668 km, 48.4° (Epoch: 29 September)

Date Brightness Start Highest point End Pass type
(mag) Time Alt. Az. Time Alt. Az. Time Alt. Az.
30 Sep - 03:40:16 10° SSW 03:44:23 31° SE 03:48:30 10° ENE visible
30 Sep - 05:23:06 10° W 05:26:28 20° NW 05:29:51 10° N visible
30 Sep - 15:53:15 10° NNW 15:57:58 60° NE 16:02:39 10° SE daylight
30 Sep - 17:38:48 10° WSW 17:40:08 11° SW 17:41:27 10° SSW daylight
01 Oct - 04:06:47 10° SW 04:11:24 73° NW 04:16:03 10° NNE visible
01 Oct - 14:39:47 10° N 14:42:52 17° NE 14:45:56 10° E daylight
01 Oct - 16:20:32 10° WNW 16:25:00 39° SW 16:29:26 10° SSE daylight
02 Oct - 02:52:22 10° S 02:56:22 29° SE 03:00:23 10° ENE visible
02 Oct - 04:34:57 10° W 04:38:27 21° NW 04:41:59 10° N visible
02 Oct - 15:05:15 10° NNW 15:09:57 55° NE 15:14:37 10° SE daylight
02 Oct - 16:50:16 10° WSW 16:52:06 12° SW 16:53:56 10° SSW daylight
03 Oct - 03:18:46 10° SW 03:23:24 79° NW 03:28:03 10° NE visible
03 Oct - 13:51:57 10° NNE 13:54:50 16° NE 13:57:42 10° E daylight
03 Oct - 15:32:26 10° WNW 15:36:58 42° SW 15:41:29 10° SSE daylight
04 Oct - 02:04:27 10° S 02:08:21 27° SE 02:12:16 10° ENE night (unlit)
04 Oct - 03:46:49 10° WSW 03:50:26 23° NW 03:54:05 10° N visible
04 Oct - 14:17:15 10° NNW 14:21:55 51° NE 14:26:33 10° SE daylight
04 Oct - 16:01:50 10° WSW 16:04:03 13° SW 16:06:17 10° SSW daylight
05 Oct - 02:30:45 10° SW 02:35:23 86° NW 02:40:01 10° NE night (unlit)
05 Oct - 13:04:09 10° NNE 13:06:47 15° NE 13:09:25 10° E daylight
05 Oct - 14:44:20 10° NW 14:48:56 46° SW 14:53:31 10° SSE daylight
06 Oct - 01:16:33 10° S 01:20:20 25° SE 01:24:07 10° ENE night (unlit)
06 Oct - 02:58:40 10° WSW 03:02:25 24° NW 03:06:10 10° N night (unlit)
06 Oct - 13:29:15 10° NNW 13:33:52 47° NE 13:38:28 10° SE daylight
06 Oct - 15:13:28 10° W 15:16:01 14° SW 15:18:33 10° SSW daylight
07 Oct - 01:42:44 10° SW 01:47:21 88° SE 01:51:59 10° NE night (unlit)
07 Oct - 12:16:22 10° NNE 12:18:44 14° NE 12:21:05 10° E daylight
07 Oct - 13:56:14 10° NW 14:00:53 49° SW 14:05:31 10° SSE daylight
08 Oct - 00:28:39 10° S 00:32:18 23° SE 00:35:57 10° ENE night (unlit)
08 Oct - 02:10:32 10° WSW 02:14:23 26° NW 02:18:14 10° N night (unlit)
08 Oct - 12:41:15 10° NNW 12:45:49 43° NE 12:50:23 10° ESE daylight
08 Oct - 14:25:09 10° W 14:27:57 15° SW 14:30:46 10° SSW daylight
09 Oct - 00:54:42 10° SW 00:59:20 81° SE 01:03:57 10° NE night (unlit)
09 Oct - 11:28:38 10° NNE 11:30:40 13° NE 11:32:42 10° ENE daylight
09 Oct - 13:08:08 10° NW 13:12:49 54° SW 13:17:31 10° SSE daylight
09 Oct - 23:40:44 10° S 23:44:16 21° SE 23:47:46 10° E night (unlit)
